Location: *
(46.1333°S, 161.2167°W)
Time: 04:09:11
(UTC+00:00)

Cosmos 1025 Rocket - Pass Details

Date: 15 July 2020
Orbit: 593 x 619 km, 82.5° (Epoch: 10 August)

Event Time Altitude Azimuth Distance (km) Brightness Sun altitude
Exits shadow 16:23:17 39° 215° (SW) 911 3.5 -19.9°
Drops below altitude 10° 16:26:28 10° 181° (S) 1,971 5.5 -19.4°
Sets 16:28:46 0° 175° (S) 2,885 6.4 -19.0°
